Regional Weather Roundup
Issued by NWS Northern Indiana

Home | Current Version | Previous Version | Graphics & Text | Print | Product List | Glossary On
Versions: 1 2 3 4 5 6 7 8 9 10 11 12 13 14 15 16 17 18 19 20 21 22 23 24 25 26 27 28 29 30 31 32 33 34 35 36 37 38 39 40 41 42 43 44 45 46 47 48 49 50
000
ASUS43 KIWX 261300
RWRIWX

KIWX WEATHER ROUNDUP
NATIONAL WEATHER SERVICE NORTHERN INDIANA
800 AM EST FRI DEC 26 2014

NOTE: "FAIR" INDICATES FEW OR NO CLOUDS BELOW 12,000 FEET WITH NO
SIGNIFICANT WEATHER AND/OR OBSTRUCTIONS TO VISIBILITY.

* THESE STATIONS ARE NOT UNDER NWS QUALITY CONTROL. THEY ALSO MAY NOT
  REPORT WEATHER SUCH AS PRECIPITATION OR FOG.

INZ001>027-261400-
NORTHERN INDIANA

CITY           SKY/WX    TMP DP  RH WIND       PRES   REMARKS
GARY*          CLEAR     37  30  75 S8        30.04R
SOUTH BEND     CLEAR     35  31  85 S9        30.07R WCI  28
ELKHART*       CLEAR     36  30  80 S6        30.08R
GOSHEN         CLEAR     35  31  85 S8        30.08R WCI  29
ANGOLA*        CLEAR     30  28  93 S5        30.09S WCI  25
FORT WAYNE     PTCLDY    33  30  88 S9        30.13R WCI  25
PERU/GRISSOM   CLEAR     35  35 100 S12       30.10R WCI  27

$$
INZ028>050-261400-
CENTRAL INDIANA

CITY           SKY/WX    TMP DP  RH WIND       PRES   REMARKS
LAFAYETTE      CLEAR     36  32  85 S7        30.11R
KOKOMO*        CLEAR     36  30  80 SW12      30.11S
MUNCIE*        CLEAR     37  32  82 SW9       30.14S
INDIANAPOLIS   PTCLDY    33  31  92 S7        30.14R WCI  27

$$
MIZ043>046-050>051-056>058-064>065-071>073-077>080-261400-
SOUTHWEST LOWER MICHIGAN

CITY           SKY/WX    TMP DP  RH WIND       PRES   REMARKS
BATTLE CREEK   CLEAR     34  30  85 S13       30.06F WCI  25
BENTON HARBOR  CLEAR     34  31  88 S7        30.04S WCI  28
COLDWATER*     CLEAR     33  31  93 MISG      30.08S
HILLSDALE*     CLEAR     32  32  99 S9        30.09S WCI  24
HOLLAND        PTCLDY    36  31  82 S8        30.03F
GRAND RAPIDS   PTCLDY    34  30  85 S8        30.04S WCI  27
KALAMAZOO      CLEAR     33  30  88 S9        30.06F WCI  25
STURGIS*       CLEAR     32  30  93 S7        30.07S WCI  26
THREE RIVERS*  FAIR      33  31  92 S8        30.07S WCI  26

$$
OHZ001>008-015>018-024>025-261400-
NORTHWEST OHIO

CITY           SKY/WX    TMP DP  RH WIND       PRES   REMARKS
DEFIANCE       CLEAR     34  30  85 S8        30.14S WCI  27
FINDLAY        CLEAR     35  30  82 S14       30.17R WCI  26
TOLEDO EXPRESS CLEAR     32  29  88 S6        30.14F WCI  26
TOLEDO METCALF CLEAR     32  28  85 S9        30.17S WCI  24
LIMA           CLEAR     34  29  82 S13       30.16S WCI  25

$$
AND FOR LAKE MICHIGAN COASTAL AND OPEN LAKE BUOY OBSERVATIONS

STATION/POSITION TEMP    WIND        PRES    VSBY  WAVE
                 AIR SEA DIR/SP/G                  HT/PER
                 (F)     (DEG/KT/KT) (MB)    (MI)  (FT/S)
CALUMET HARBOR    38     190/  9/ 12 1015.3R
MICHIGAN CITY     36     150/ 13/ 17   N/A
SAINT JOSEPH      36     140/  4/ 11 1017.9R

$$
&&



USA.gov is the U.S. government's official web portal to all federal, state and local government web resources and services.